Regional Weather Roundup
Issued by NWS

Home | Current Version | Previous Version | Graphics & Text | Print | Product List | Glossary On
Versions: 1 2 3 4 5 6 7 8 9 10 11 12 13 14 15 16 17 18 19 20 21 22 23 24 25 26 27 28 29 30 31 32 33 34 35 36 37 38 39 40 41 42 43 44 45 46 47 48 49 50
000
ASUS43 KLOT 220810
RWRIL

ILLINOIS REGIONAL WEATHER ROUNDUP
NATIONAL WEATHER SERVICE CHICAGO/ROMEOVILLE IL
200 AM CST SAT NOV 22 2014

NOTE: "FAIR" INDICATES FEW OR NO CLOUDS BELOW 12,000 FEET WITH NO
SIGNIFICANT WEATHER AND/OR OBSTRUCTIONS TO VISIBILITY.

* THESE STATIONS ARE NOT UNDER NWS QUALITY CONTROL. THEY ALSO MAY NOT
  REPORT WEATHER SUCH AS PRECIPITATION OR FOG.

ILZ001-002-007-009-015-016-024-220900-
NORTHWEST ILLINOIS

CITY           SKY/WX    TMP DP  RH WIND       PRES   REMARKS
MOLINE         CLOUDY    35  31  85 S5        30.06F WCI  31
STERLING*      CLOUDY    34  30  86 SW5       30.09F WCI  30
SAVANNA*       MIX PCPN  33  30  90 S6        30.07F WCI  27
$$

ILZ003-004-008-010-011-017-018-220900-
NORTH CENTRAL ILLINOIS

CITY           SKY/WX    TMP DP  RH WIND       PRES   REMARKS
ROCKFORD       FRZ RAIN  32  27  81 S10       30.11F WCI  24
FREEPORT*      LGT RAIN  32  29  88 S8        30.09F WCI  25
ROCHELLE*      LGT RAIN  32  28  82 S12       30.10F WCI  23
DE KALB*       DRIZZLE   33  24  71 S16G24    30.10F WCI  22
PERU*          CLOUDY    36  31  82 S18       30.12F WCI  25
$$

ILZ005-006-012>014-019>023-220900-
NORTHEAST ILLINOIS

CITY           SKY/WX    TMP DP  RH WIND       PRES   REMARKS
CHICAGO-OHARE  LGT RAIN  34  21  59 S20G26    30.11F WCI  23
CHICAGO-MIDWAY CLOUDY    36  23  59 S16G29    30.13F WCI  26
AURORA         CLOUDY    36  26  67 S14G25    30.12F WCI  27
LANSING*       LGT SNOW  33  27  79 S14       30.16S WCI  23
JOLIET*        CLOUDY    32  29  89 S8        30.15F FOG     WCI  25
WAUKEGAN       CLOUDY    35  20  54 SW18G25   30.08F WCI  24
DUPAGE AIRPORT CLOUDY    35  22  58 S14       30.11F WCI  26
KANKAKEE*      LGT RAIN  33  31  94 S12       30.16F WCI  24
WHEELING       CLOUDY    36  16  44 SW18G25   30.13F WCI  26
MORRIS*        CLOUDY    33  32  95 S12       30.13F FOG     WCI  24
ROMEOVILLE*    CLOUDY    33  27  77 S14       30.13F WCI  23
NORTHERLY ISL    N/A     36  18  48 S20         N/A  WCI  25
$$

LMZ740>746-220900-
SOUTHERN LAKE MICHIGAN

STATION/POSITION SKY/WX   TEMP    WIND        PRES    VSBY  WAVE
                          AIR SEA DIR/SP/G                  HT/PER
                          (F)     (DEG/KT/KT) (MB)    (MI)  (FT/S)
SOUTHERN BUOY              39 43  190/ 25/ 29 1019.8F         7/ 7
WAUKEGAN HARBOR            36     210/ 20       N/A
HARRISON CRIB              36     190/ 29/ 37   N/A
BURNHAM HARBOR             36     220/ 19/ 20   N/A
CALUMET HARBOR             36     180/ 14/ 18 1019.2S
MICHIGAN CITY              35     160/ 16/ 20   N/A
$$

ILZ025>027-034>036-040-047-049-050-058-095>099-220900-
WEST-CENTRAL ILLINOIS

CITY           SKY/WX    TMP DP  RH WIND       PRES   REMARKS
QUINCY         CLOUDY    44  39  82 S12       30.08F
GALESBURG*     CLOUDY    36  30  79 S13G18    30.08F WCI  28
MACOMB*        CLOUDY    36  32  86 S8        30.11F WCI  29
JACKSONVILLE*  CLOUDY    41  37  84 S10       30.14F
PITTSFIELD*    CLOUDY    43  38  83 S9G17     30.13S
$$

ILZ028>032-037-038-041>044-048-051>054-059>061-220900-
CENTRAL ILLINOIS

CITY           SKY/WX    TMP DP  RH WIND       PRES   REMARKS
PONTIAC        CLOUDY    35  33  92 S10       30.15F FOG     WCI  27
BLOOMINGTON    CLOUDY    34  33  96 S14       30.15S FOG     WCI  25
DECATUR        CLOUDY    38  31  76 S16       30.17F WCI  29
PEORIA         CLOUDY    35  31  85 S8        30.13F WCI  29
LACON*         CLOUDY    36  30  79 SW14      30.12S WCI  27
LINCOLN*       CLOUDY    38  34  86 S10       30.16F WCI  31
SPRINGFIELD    CLOUDY    39  34  82 S13       30.16F WCI  31
TAYLORVILLE    CLOUDY    36  32  87 S13G20    30.17S WCI  27
$$

ILZ033-039-045-046-055>057-062-063-220900-
EAST-CENTRAL ILLINOIS

CITY           SKY/WX    TMP DP  RH WIND       PRES   REMARKS
CHAMPAIGN      CLOUDY    36  31  82 S14       30.18F WCI  27
DANVILLE*      LGT RAIN  34  30  84 S13       30.17F WCI  25
RANTOUL*       CLOUDY    35  33  90 S13       30.16F WCI  27
MATTOON        CLOUDY    37  28  70 S13       30.19F WCI  29
PARIS*         LGT RAIN  36  28  74 S16       30.21F WCI  26
$$

ILZ079-100>102-220900-
SOUTHWEST ILLINOIS

CITY           SKY/WX    TMP DP  RH WIND       PRES   REMARKS
ALTON          CLOUDY    41  34  77 SE7       30.17F
BELLEVILLE     CLOUDY    40  35  81 S5        30.19F
CAHOKIA*       CLOUDY    43  36  76 S5        30.18F
SPARTA*        PTCLDY    41  32  69 S8        30.21S
$$

ILZ064>066-069>071-074>076-080>082-084>086-088>090-092>094-220900-
SOUTH-CENTRAL ILLINOIS

CITY           SKY/WX    TMP DP  RH WIND       PRES   REMARKS
CARBONDALE     PTCLDY    45  31  58 S7        30.23F
CAIRO*         CLOUDY    49  39  68 S9        30.25F
EFFINGHAM*     CLOUDY    38  26  60 SE9       30.21F WCI  32
MARION         CLOUDY    48  34  57 S13       30.24F
MT. VERNON     CLOUDY    39  28  65 S5        30.23F
CENTRALIA*     CLOUDY    40  29  63 S9        30.20F
SALEM*           N/A     43  30  60 S8        30.21F
METROPOLIS*    LGT RAIN  46  32  58 CALM      30.26S
$$

ILZ067-068-072-073-078-083-087-091-220900-
SOUTHEAST ILLINOIS

CITY           SKY/WX    TMP DP  RH WIND       PRES   REMARKS
LAWRENCEVILLE  CLOUDY    37  32  82 SE5       30.26F WCI  33
FLORA*         CLEAR     37  30  75 S8        30.24S WCI  31
FAIRFIELD*     CLOUDY    41  30  64 SE6       30.23F
HARRISBURG*    LGT RAIN  43  32  66 SE5       30.27S
ROBINSON*      CLOUDY    37  31  80 S8        30.26F WCI  30
CARMI*         CLOUDY    41  34  77 SE6       30.26S
$$

ABBREVIATIONS USED IN REMARKS
   TC - TEMPERATURE IN CELSIUS
  WCI - WIND CHILL INDEX
   HX - HEAT INDEX
  VSB - VISIBILITY
$$




USA.gov is the U.S. government's official web portal to all federal, state and local government web resources and services.